Location: Unspecified
(48.8656°N, 0.0000°E)
Time: 14:57:47
(UTC+00:00)

Vanguard 1 - Pass Details

Date: 24 June 2019
Orbit: 654 x 3829 km, 34.2° (Epoch: 25 August)

Event Time Altitude Azimuth Distance (km) Brightness Sun altitude
Rises 06:31:44 0° 267° (W) 6,217 13.6 22.1°
Reaches altitude 10° 06:37:20 10° 257° (WSW) 4,601 13.0 23.0°
Maximum altitude 06:45:56 25° 209° (SSW) 2,615 12.1 24.4°
Drops below altitude 10° 06:51:36 10° 157° (SSE) 2,918 12.8 25.3°
Sets 06:54:16 0° 142° (SE) 3,582 13.4 25.8°
